Date,TemperatureHighF,TemperatureAvgF,TemperatureLowF,DewpointHighF,DewpointAvgF,DewpointLowF,HumidityHigh,HumidityAvg,HumidityLow,PressureMaxIn,PressureMinIn,WindSpeedMaxMPH,WindSpeedAvgMPH,GustSpeedMaxMPH,PrecipitationSumIn
2013-1-1,25,16,11,14,11,9,91,81,61,0.00,40.00,4,1,10,0.00
2013-1-2,31,20,12,14,10,7,87,69,43,0.00,40.00,5,1,9,0.00
2013-1-3,33,20,13,16,11,8,86,68,45,0.00,40.00,2,1,6,0.00
2013-1-4,36,25,17,18,15,12,82,66,45,0.00,40.00,2,1,4,0.00
2013-1-5,34,25,20,19,16,14,82,71,50,0.00,40.00,2,0,4,0.00
2013-1-6,28,23,18,21,18,15,90,81,63,0.00,40.00,5,1,13,0.00
2013-1-7,42,32,22,31,23,18,86,71,44,0.00,40.00,4,1,6,0.00
2013-1-8,51,40,34,31,30,28,80,67,44,0.00,40.00,4,1,8,0.00
2013-1-9,51,42,25,31,23,12,92,50,23,0.00,40.00,36,15,55,0.00
2013-1-10,26,23,21,21,9,1,87,56,33,0.00,40.00,25,8,46,0.00
2013-1-11,25,21,19,9,6,3,57,50,43,0.00,40.00,10,6,27,0.00
2013-1-14,25,20,16,7,5,0,65,50,38,0.00,40.00,3,2,6,0.00
2013-1-15,41,28,17,20,15,3,79,58,38,0.00,40.00,3,1,6,0.00
2013-1-16,42,31,23,20,17,15,74,57,40,0.00,40.00,3,1,6,0.00
2013-1-17,38,29,23,18,15,11,67,57,43,0.00,40.00,3,1,5,0.00
2013-1-18,38,27,20,19,15,11,76,62,45,0.00,40.00,2,1,6,0.00
2013-1-19,29,25,22,17,13,10,68,60,55,0.00,40.00,2,0,3,0.00
2013-1-20,39,29,21,19,14,8,64,52,42,0.00,40.00,4,1,7,0.00
2013-1-21,44,33,25,21,15,10,63,48,32,0.00,40.00,3,1,5,0.00
2013-1-22,44,36,29,22,18,13,55,48,38,0.00,40.00,3,1,6,0.00
2013-1-23,48,41,36,27,16,0,58,36,13,0.00,40.00,19,6,35,0.00
2013-1-24,41,38,35,35,33,26,96,85,56,0.00,40.00,11,1,16,0.00
2013-1-25,48,40,35,40,36,34,96,87,68,0.00,40.00,9,2,17,0.00
2013-1-26,46,41,34,36,28,19,86,61,38,0.00,40.00,26,11,47,0.00
2013-1-27,34,26,19,24,17,11,93,70,50,0.00,40.00,18,7,41,0.00
2013-1-28,32,25,17,23,15,10,76,65,54,0.00,40.00,11,4,21,0.00
2013-1-29,46,38,31,28,24,18,76,60,46,0.00,40.00,18,7,35,0.00
2013-1-30,51,41,34,30,26,12,78,57,23,0.00,40.00,7,2,12,0.00
2013-1-31,55,45,33,27,20,11,73,39,22,0.00,40.00,12,3,22,0.00
2013-2-1,51,42,33,27,19,7,61,41,28,0.00,40.00,8,2,12,0.00
2013-2-2,42,37,34,29,27,21,77,66,53,0.00,40.00,2,1,7,0.00
2013-2-3,50,41,35,27,18,12,71,41,23,0.00,40.00,11,3,19,0.00
2013-2-4,56,44,33,25,18,7,55,37,14,0.00,40.00,13,5,25,0.00
2013-2-5,51,44,36,23,14,2,51,32,15,0.00,40.00,13,9,29,0.00
2013-2-6,48,37,27,17,10,0,50,34,14,0.00,40.00,9,4,19,0.00
2013-2-7,41,35,25,24,9,-12,85,39,11,0.00,40.00,31,18,55,0.00
2013-2-8,30,24,19,20,15,11,87,68,53,0.00,40.00,17,6,27,0.00
2013-2-9,32,25,18,14,12,10,75,60,40,0.00,40.00,10,4,16,0.00
2013-2-10,33,27,22,19,14,10,72,57,42,0.00,40.00,16,6,26,0.00
2013-2-11,39,30,21,12,9,6,62,43,27,0.00,40.00,7,3,12,0.00
2013-2-12,47,35,26,20,15,12,58,44,30,0.00,40.00,8,2,14,0.00
2013-2-13,49,38,29,22,20,17,63,47,32,0.00,40.00,8,3,16,0.00
2013-2-14,46,39,31,26,23,21,68,54,44,0.00,40.00,13,5,21,0.00
2013-2-15,53,39,30,25,22,19,73,52,28,0.00,40.00,9,2,13,0.00
2013-2-16,52,43,36,25,15,5,62,33,16,0.00,40.00,15,5,29,0.00
2013-2-17,50,40,31,25,18,8,61,40,32,0.00,40.00,15,6,29,0.00
2013-2-18,48,36,28,19,14,6,61,42,19,0.00,40.00,22,5,39,0.00
2013-2-19,36,30,25,27,15,6,88,55,30,0.00,40.00,25,13,46,0.00
2013-2-20,37,29,21,20,13,4,84,54,26,0.00,40.00,13,6,26,0.00
2013-2-21,39,30,22,17,11,3,72,48,21,0.00,40.00,11,5,23,0.00
2013-2-22,50,35,24,26,15,7,62,45,17,0.00,40.00,20,6,39,0.00
2013-2-23,40,30,23,26,16,4,72,54,35,0.00,40.00,22,12,41,0.00
2013-2-24,39,27,20,12,8,3,69,47,24,0.00,40.00,8,4,13,0.00
2013-2-25,45,38,27,22,13,4,63,38,22,0.00,40.00,18,10,35,0.00
2013-2-26,41,31,22,21,8,2,58,39,22,0.00,40.00,11,4,22,0.00
2013-2-27,50,38,26,20,8,0,46,29,15,0.00,40.00,12,5,22,0.00
2013-2-28,55,44,35,29,22,15,56,42,31,0.00,40.00,14,5,22,0.00
2013-3-1,61,49,37,29,26,22,66,42,24,0.00,40.00,8,3,13,0.00
2013-3-2,59,50,43,27,22,17,48,34,21,0.00,40.00,14,7,28,0.00
2013-3-3,45,39,35,36,33,25,91,80,47,0.00,40.00,12,5,25,0.00
2013-3-4,52,41,32,33,29,14,86,65,22,0.00,40.00,11,3,20,0.00
2013-3-5,51,44,38,29,23,16,62,44,33,0.00,40.00,20,11,35,0.00
2013-3-6,40,29,27,29,13,-100,97,66,46,0.00,40.00,32,15,60,0.00
2013-3-7,36,30,26,27,22,16,92,72,51,0.00,40.00,9,3,20,0.00
2013-3-8,39,32,27,27,24,19,95,72,47,0.00,40.00,7,2,14,0.00
2013-3-9,44,36,27,24,13,4,73,43,19,0.00,40.00,11,4,22,0.00
2013-3-10,53,42,30,12,7,0,38,24,12,0.00,40.00,9,3,15,0.00
2013-3-11,59,47,37,16,10,6,33,23,13,0.00,40.00,8,3,17,0.00
2013-3-12,64,53,41,26,16,11,31,23,15,0.00,40.00,6,2,13,0.00
2013-3-13,68,57,46,33,22,8,52,29,10,0.00,40.00,16,5,25,0.00
2013-3-14,66,58,51,32,19,6,46,24,12,0.00,40.00,18,8,37,0.00
2013-3-15,62,55,49,29,15,4,39,21,12,0.00,40.00,17,8,32,0.00
2013-3-16,56,49,41,24,17,7,44,29,16,0.00,40.00,20,9,37,0.00
2013-3-17,55,46,40,29,18,5,55,34,15,0.00,40.00,18,11,33,0.00
2013-3-18,55,46,38,23,14,6,45,28,16,0.00,40.00,16,8,31,0.00
2013-3-19,52,45,39,34,29,17,79,55,33,0.00,40.00,17,9,31,0.00
2013-3-20,47,42,38,37,33,30,84,70,58,0.00,40.00,32,20,51,0.00
2013-3-21,51,42,33,30,21,-4,65,45,11,0.00,40.00,26,9,47,0.00
2013-3-22,48,36,27,16,9,-5,54,36,11,0.00,40.00,10,3,21,0.00
2013-3-23,50,43,37,22,11,4,52,27,21,0.00,40.00,10,5,21,0.00
2013-3-24,57,44,32,27,18,9,57,35,23,0.00,40.00,15,6,29,0.00
2013-3-25,57,49,42,31,12,-3,58,24,10,0.00,40.00,17,9,33,0.00
2013-3-26,51,45,40,32,27,15,68,50,30,0.00,40.00,20,12,40,0.00
2013-3-27,53,45,36,35,30,26,74,57,35,0.00,40.00,17,9,32,0.00
2013-3-28,54,46,42,36,30,24,76,55,33,0.00,40.00,18,10,32,0.00
2013-3-29,61,49,36,35,28,23,75,47,24,0.00,40.00,9,4,20,0.00
2013-3-30,63,52,44,37,29,-100,58,43,25,0.00,40.00,18,5,30,0.00
2013-3-31,53,44,39,37,32,25,83,62,44,0.00,40.00,19,12,35,0.00
2013-4-1,47,41,34,32,30,26,92,65,44,0.00,40.00,17,10,30,0.00
2013-4-2,40,37,35,30,29,28,77,72,64,0.00,40.00,8,3,16,0.00
2013-4-4,52,46,41,37,34,31,86,66,46,0.00,40.00,17,11,34,0.00
2013-4-5,51,44,38,35,27,18,81,54,29,0.00,40.00,20,10,40,0.00
2013-4-6,46,45,44,30,29,28,56,54,51,0.00,40.00,18,17,35,0.00
2013-4-7,51,45,34,28,26,22,80,49,32,0.00,40.00,21,15,41,0.00
2013-4-8,39,33,29,31,21,13,95,62,34,0.00,40.00,21,12,58,0.00
2013-4-9,47,38,29,19,15,6,65,43,20,0.00,40.00,17,10,42,0.00
2013-4-10,66,50,37,33,24,17,49,36,17,0.00,40.00,16,5,32,0.00
2013-4-11,58,49,40,38,32,15,86,53,24,0.00,40.00,17,6,29,0.00
2013-4-12,64,51,39,35,24,3,51,37,9,0.00,40.00,18,6,34,0.00
2013-4-13,57,52,46,33,26,14,52,36,20,0.00,40.00,27,16,50,0.00
2013-4-14,53,46,42,33,27,20,65,48,28,0.00,40.00,29,16,50,0.00
2013-4-15,42,35,27,31,25,14,94,68,45,0.00,40.00,22,11,39,0.00
2013-4-16,36,29,25,24,18,8,89,63,31,0.00,40.00,19,10,31,0.00
2013-4-18,54,46,40,14,8,6,24,21,19,0.00,40.00,8,5,16,0.00
2013-4-22,66,58,43,33,19,7,47,23,14,0.00,40.00,17,10,29,0.00
2013-4-23,57,43,35,8,4,1,26,20,13,0.00,40.00,13,8,21,0.00
2013-4-24,58,52,42,7,4,-2,18,14,11,0.00,40.00,17,10,29,0.00
2013-4-25,64,54,43,24,12,1,30,19,10,0.00,40.00,18,7,28,0.00
2013-4-26,71,60,47,33,22,15,36,24,12,0.00,40.00,12,4,20,0.00
2013-4-27,71,63,50,36,26,22,42,25,17,0.00,40.00,18,9,28,0.00
2013-4-28,71,62,50,38,25,11,42,26,10,0.00,40.00,12,6,23,0.00
2013-4-29,70,61,51,34,31,27,47,33,21,0.00,40.00,19,9,34,0.00
2013-4-30,63,54,46,36,19,-9,61,28,10,0.00,40.00,17,9,31,0.00
2013-5-1,56,45,36,5,-2,-9,23,14,10,0.00,40.00,17,13,28,0.00
2013-5-2,68,51,39,9,1,-6,18,13,9,0.00,40.00,13,5,21,0.00
2013-5-3,70,61,50,29,16,5,45,19,11,0.00,40.00,13,7,24,0.00
2013-5-4,61,53,47,29,20,10,44,28,13,0.00,40.00,15,9,25,0.00
2013-5-5,58,48,40,40,35,26,91,61,43,0.00,40.00,11,4,25,0.00
2013-5-6,47,44,39,39,37,33,91,77,67,0.00,40.00,19,8,33,0.00
2013-5-7,47,42,38,38,36,33,95,81,68,0.00,40.00,18,10,30,0.00
2013-5-8,59,48,40,44,38,33,93,71,37,0.00,40.00,13,6,24,0.00
2013-5-9,66,56,45,43,36,29,72,52,25,0.00,40.00,11,4,20,0.00
2013-5-10,72,63,51,41,34,26,58,37,18,0.00,40.00,11,4,22,0.00
2013-5-11,77,67,55,39,29,-100,45,27,14,0.00,40.00,16,7,24,0.00
2013-5-12,74,67,60,36,30,23,35,25,16,0.00,40.00,18,11,34,0.00
2013-5-13,74,68,59,32,28,25,35,22,18,0.00,40.00,16,11,34,0.00
2013-5-14,71,63,56,42,32,27,50,33,21,0.00,40.00,18,6,30,0.00
2013-5-15,68,60,54,38,23,13,47,25,12,0.00,40.00,19,12,35,0.00
2013-5-16,51,45,45,41,15,-100,74,58,44,0.00,40.00,17,11,36,0.00
2013-5-17,56,48,41,35,26,-100,73,50,29,0.00,40.00,18,9,37,0.00
2013-5-18,61,51,41,34,25,13,57,37,24,0.00,40.00,17,9,32,0.00
2013-5-19,62,52,42,34,27,16,70,42,18,0.00,40.00,13,7,26,0.00
2013-5-20,73,56,46,30,23,15,37,28,13,0.00,40.00,14,7,24,0.00
2013-5-21,64,58,48,30,23,10,39,27,13,0.00,40.00,28,17,52,0.00
2013-5-22,54,46,41,23,15,1,44,29,12,0.00,40.00,18,11,35,0.00
2013-5-23,51,44,37,27,16,6,48,33,19,0.00,40.00,15,9,29,0.00
2013-5-24,64,51,38,28,18,3,52,29,9,0.00,40.00,15,7,34,0.00
2013-5-25,61,53,43,33,23,7,49,32,14,0.00,40.00,24,11,42,0.00
2013-5-26,58,51,45,35,26,20,67,38,29,0.00,40.00,24,12,40,0.00
2013-5-27,56,48,43,41,31,15,83,55,24,0.00,40.00,18,11,34,0.00
2013-5-28,57,50,45,41,37,32,84,63,39,0.00,40.00,18,13,32,0.00
2013-5-29,59,53,45,41,35,29,79,52,34,0.00,40.00,21,15,40,0.00
2013-5-30,65,56,44,37,29,3,66,40,11,0.00,40.00,20,11,41,0.00
2013-5-31,60,53,47,32,22,3,42,31,11,0.00,40.00,9,3,16,0.00
2013-6-4,85,75,65,44,27,15,36,18,10,0.00,40.00,11,6,20,0.00
2013-6-5,84,74,62,39,27,19,31,18,11,0.00,40.00,13,5,19,0.00
2013-6-6,86,76,65,41,32,18,35,21,8,0.00,40.00,18,7,33,0.00
2013-6-7,87,77,64,39,28,18,31,17,8,0.00,40.00,13,6,23,0.00
2013-6-8,90,78,67,40,33,26,35,20,12,0.00,40.00,10,5,18,0.00
2013-6-9,89,77,70,52,33,22,52,21,13,0.00,40.00,19,5,33,0.00
2013-6-10,71,64,56,53,42,28,65,47,25,0.00,40.00,22,12,43,0.00
2013-6-11,71,62,54,42,35,25,56,38,20,0.00,40.00,19,12,37,0.00
2013-6-12,72,64,56,37,30,16,48,28,18,0.00,40.00,23,-35,39,0.00
2013-6-13,65,58,47,24,13,-2,32,18,8,0.00,40.00,20,-33,35,0.00
2013-6-14,70,57,47,25,22,15,40,26,16,0.00,40.00,15,-16,28,0.00
2013-6-15,71,64,52,29,23,13,31,21,12,0.00,40.00,18,-20,34,0.00
2013-6-16,71,63,51,32,27,13,46,27,13,0.00,40.00,17,-10,30,0.00
2013-6-17,72,63,52,34,26,15,40,26,13,0.00,40.00,20,-13,36,0.00
2013-6-18,66,59,48,31,24,16,46,27,17,0.00,40.00,26,-24,48,0.00
2013-6-19,59,51,44,29,18,10,39,28,16,0.00,40.00,17,-40,32,0.00
2013-6-20,62,51,42,27,22,12,45,34,20,0.00,40.00,12,-60,26,0.00
2013-6-21,67,66,65,27,25,21,24,21,18,0.00,40.00,12,10,21,0.00
2013-6-22,74,66,51,33,29,24,36,25,18,0.00,40.00,17,-15,26,0.00
2013-6-23,65,60,54,39,34,27,55,39,25,0.00,40.00,24,-11,42,0.00
2013-6-24,56,52,50,46,42,30,83,67,40,0.00,40.00,15,-28,37,0.00
2013-6-25,63,57,51,50,48,46,87,70,60,0.00,40.00,18,9,31,0.00
2013-6-27,83,77,62,46,42,36,52,30,19,0.00,40.00,15,-20,30,0.00
2013-6-28,92,81,67,49,41,33,42,26,13,0.00,40.00,13,-10,26,0.00
2013-6-29,88,83,73,48,38,31,41,21,14,0.00,40.00,13,9,26,0.00
2013-6-30,89,82,69,45,42,35,35,25,15,0.00,40.00,15,10,28,0.00
2013-7-1,91,81,71,43,37,30,31,21,11,0.00,40.00,15,-10,28,0.00
2013-7-2,93,81,69,46,40,35,41,24,14,0.00,40.00,12,5,24,0.00
2013-7-3,90,76,65,50,45,39,55,35,19,0.00,40.00,11,-27,21,0.00
2013-7-4,87,77,68,51,47,44,51,35,23,0.00,40.00,15,-40,27,0.00
2013-7-5,85,77,66,48,31,19,49,22,10,0.00,40.00,16,-35,33,0.00
2013-7-6,81,72,63,39,29,20,36,21,12,0.00,40.00,20,-39,34,0.00
2013-7-7,82,76,65,36,31,25,32,20,13,0.00,40.00,20,-69,35,0.00
2013-7-8,82,71,66,37,26,-100,25,21,11,0.00,40.00,17,-53,32,0.00
2013-7-9,78,75,70,32,28,24,22,18,15,0.00,40.00,16,-3,34,0.00
2013-7-10,81,72,61,35,28,-100,37,20,13,0.00,40.00,15,-13,29,0.00
2013-7-11,77,71,67,40,32,25,31,24,17,0.00,40.00,18,-15,33,0.00
2013-7-12,77,71,60,35,28,23,33,21,14,0.00,40.00,17,-92,33,0.00
2013-7-13,78,71,56,39,30,16,41,24,10,0.00,40.00,18,-43,32,0.00
2013-7-14,83,73,60,36,32,27,36,23,14,0.00,40.00,16,-15,27,0.00
2013-7-15,83,75,64,41,37,29,37,26,14,0.00,40.00,17,-23,29,0.00
2013-7-16,76,72,67,40,32,28,36,23,17,0.00,40.00,22,1,37,0.00
2013-7-17,84,73,56,40,29,19,48,22,10,0.00,40.00,15,-36,24,0.00
2013-7-18,91,83,67,41,31,21,29,17,8,0.00,40.00,16,-121,27,0.00
2013-7-19,91,84,74,40,32,24,29,16,9,0.00,40.00,16,-37,25,0.00
2013-7-20,95,87,75,41,31,-100,25,15,8,0.00,40.00,11,-15,22,0.00
2013-7-21,94,87,78,48,37,27,34,18,10,0.00,40.00,21,-5,32,0.00
2013-7-22,91,78,70,47,42,32,36,28,13,0.00,40.00,24,3,40,0.00
2013-7-23,78,73,68,45,42,38,40,33,25,0.00,40.00,17,-12,29,0.00
2013-7-24,81,73,62,48,44,41,54,37,25,0.00,40.00,16,-32,28,0.00
2013-7-25,86,74,64,53,47,42,64,41,22,0.00,40.00,17,-9,40,0.00
2013-7-26,83,73,60,52,46,42,74,41,25,0.00,40.00,16,-38,29,0.00
2013-7-27,83,76,66,47,42,27,43,30,13,0.00,40.00,19,11,31,0.00
2013-7-28,80,75,69,45,36,31,40,25,18,0.00,40.00,19,-48,36,0.00
2013-7-29,78,70,61,41,34,27,40,27,16,0.00,40.00,18,8,35,0.00
2013-7-30,78,71,61,38,35,28,43,28,17,0.00,40.00,17,0,32,0.00
2013-7-31,76,71,64,38,35,32,36,26,22,0.00,40.00,21,-79,41,0.00
2013-8-1,71,65,57,36,23,14,39,21,12,0.00,40.00,18,-11,33,0.00
2013-8-2,75,67,52,30,19,12,29,18,9,0.00,40.00,16,-54,29,0.00
2013-8-3,79,68,57,40,30,21,40,25,13,0.00,40.00,19,-3,28,0.00
2013-8-4,82,73,58,38,31,24,38,23,12,0.00,40.00,19,10,32,0.00
2013-8-5,82,71,59,36,28,19,39,22,10,0.00,40.00,16,-22,25,0.00
2013-8-6,85,74,63,41,31,19,38,23,9,0.00,40.00,20,-4,31,0.00
2013-8-7,73,66,60,38,33,27,39,30,19,0.00,40.00,20,-10,41,0.00
2013-8-8,74,65,55,39,32,18,43,31,16,0.00,40.00,18,-2,34,0.00
2013-8-9,72,63,55,40,36,24,51,38,17,0.00,40.00,16,-1,33,0.00
2013-8-10,71,64,55,40,29,19,45,28,14,0.00,40.00,18,11,31,0.00
2013-8-11,78,66,54,39,30,23,40,28,14,0.00,40.00,18,-16,30,0.00
2013-8-12,77,68,57,38,32,23,45,28,14,0.00,40.00,15,-4,31,0.00
2013-8-13,81,72,57,32,27,18,32,19,11,0.00,40.00,15,-12,28,0.00
2013-8-14,83,74,60,35,21,-100,28,15,8,0.00,40.00,15,10,28,0.00
2013-8-15,81,66,62,29,7,-100,23,13,8,0.00,40.00,18,13,37,0.00
2013-8-16,80,71,64,31,17,-100,24,14,10,0.00,40.00,19,12,31,0.00
2013-8-17,83,76,65,38,32,-100,31,21,16,0.00,40.00,13,-12,26,0.00
2013-8-18,91,79,64,41,33,25,31,20,10,0.00,40.00,17,7,29,0.00
2013-8-19,79,69,68,46,30,-100,43,30,22,0.00,40.00,12,3,22,0.00
2013-8-20,84,72,63,48,38,-100,57,31,18,0.00,40.00,14,6,25,0.00
2013-8-21,80,68,61,54,46,40,56,46,24,0.00,40.00,10,3,17,0.00
2013-8-22,77,69,59,47,38,30,58,34,19,0.00,40.00,16,7,30,0.00
2013-8-23,75,67,57,39,31,25,44,26,16,0.00,40.00,17,-34,30,0.00
2013-8-24,73,64,57,39,28,-100,45,28,14,0.00,40.00,20,10,38,0.00
2013-8-25,70,64,58,39,34,27,45,32,26,0.00,40.00,18,-28,35,0.00
2013-8-29,78,71,63,42,36,28,45,29,16,0.00,40.00,16,-18,29,0.00
2013-8-30,61,61,61,32,32,32,33,33,33,0.00,40.00,1,1,4,0.00
2013-9-3,76,70,67,47,45,43,44,41,33,0.00,40.00,18,-31,30,0.00
2013-9-4,78,71,60,47,43,41,56,37,28,0.00,40.00,20,-9,36,0.00
2013-9-5,76,68,63,41,37,31,44,32,21,0.00,40.00,17,11,37,0.00
2013-9-8,81,71,59,33,28,23,36,21,13,0.00,40.00,11,6,23,0.00
2013-9-9,81,74,61,32,28,25,30,18,15,0.00,40.00,11,6,20,0.00
2013-9-10,80,70,61,32,27,23,28,20,13,0.00,40.00,10,4,17,0.00
2013-9-11,79,71,61,39,33,26,36,26,15,0.00,40.00,13,-14,22,0.00
2013-9-12,78,69,60,53,42,32,76,40,27,0.00,40.00,16,-25,27,0.00
2013-9-13,77,66,58,51,45,38,72,49,25,0.00,40.00,11,-27,24,0.00
2013-9-14,81,70,60,43,38,-100,48,33,21,0.00,40.00,12,5,21,0.00
2013-9-15,77,69,61,43,35,28,46,29,18,0.00,40.00,22,-6,42,0.00
2013-9-16,77,70,62,41,32,28,46,26,17,0.00,40.00,18,-3,34,0.00
2013-9-17,66,60,50,34,29,15,47,31,14,0.00,40.00,23,13,46,0.00
2013-9-18,57,49,44,31,27,22,61,45,27,0.00,40.00,6,2,10,0.00
2013-9-19,73,60,48,25,22,19,38,25,13,0.00,40.00,6,3,13,0.00
2013-9-20,73,65,55,34,26,18,44,24,13,0.00,40.00,23,12,41,0.00
2013-9-21,57,49,39,41,31,-100,82,54,21,0.00,40.00,23,12,45,0.00
2013-9-22,58,47,37,39,34,29,82,62,33,0.00,40.00,17,8,30,0.00
2013-9-23,70,56,44,38,33,15,76,48,12,0.00,40.00,18,5,30,0.00
2013-9-24,64,58,48,32,25,12,47,28,16,0.00,40.00,23,0,45,0.00
2013-9-25,50,44,36,31,26,19,82,50,29,0.00,40.00,18,-1,34,0.00
2013-9-26,45,38,31,30,25,21,83,60,40,0.00,40.00,12,5,22,0.00
2013-9-27,59,45,34,26,23,16,71,46,19,0.00,40.00,8,3,13,0.00
2013-9-28,65,54,43,32,25,-100,62,35,25,0.00,40.00,14,-6,27,0.00
2013-9-29,62,57,54,31,28,18,40,33,22,0.00,40.00,23,-9,45,0.00
2013-9-30,61,56,51,39,33,27,56,42,34,0.00,40.00,19,-15,38,0.00
2013-10-1,63,59,54,33,26,15,43,29,22,0.00,40.00,13,8,27,0.00
2013-10-2,60,52,44,30,21,10,49,31,14,0.00,40.00,20,8,38,0.00
2013-10-3,48,41,34,25,19,11,60,42,23,0.00,40.00,16,-4,27,0.00
2013-10-4,50,42,34,22,17,12,58,38,22,0.00,40.00,21,14,30,0.00
2013-10-5,63,47,35,17,14,11,44,28,14,0.00,40.00,9,-21,14,0.00
2013-10-6,73,57,44,21,13,9,27,19,9,0.00,40.00,16,4,24,0.00
2013-10-7,66,59,51,21,16,8,28,19,11,0.00,40.00,15,-38,29,0.00
2013-10-8,60,51,42,26,19,13,42,28,19,0.00,40.00,11,4,25,0.00
2013-10-9,48,42,36,32,28,19,85,60,33,0.00,40.00,13,8,28,0.00
2013-10-10,57,46,36,35,29,26,73,55,32,0.00,40.00,15,-6,27,0.00
2013-10-11,61,48,38,33,29,15,72,50,17,0.00,40.00,17,5,26,0.00
2013-10-12,56,48,43,32,25,-100,65,44,23,0.00,40.00,19,10,41,0.00
2013-10-13,48,41,35,36,30,26,90,66,45,0.00,40.00,14,-9,17,0.00
2013-10-14,53,43,34,29,26,22,75,55,30,0.00,40.00,7,-8,17,0.00
2013-10-15,51,43,35,24,20,13,59,40,26,0.00,40.00,14,7,23,0.00
2013-10-16,64,49,35,29,20,14,54,33,17,0.00,40.00,16,6,28,0.00
2013-10-17,62,53,43,30,19,11,51,29,14,0.00,40.00,10,3,18,0.00
2013-10-18,65,52,43,21,18,16,40,27,15,0.00,40.00,7,4,11,0.00
2013-10-19,67,54,44,21,16,-100,37,24,15,0.00,40.00,9,2,14,0.00
2013-10-20,68,58,48,20,16,13,29,20,12,0.00,40.00,8,3,14,0.00
2013-10-21,66,57,47,18,17,15,28,21,14,0.00,40.00,8,3,13,0.00
2013-10-22,68,56,46,19,17,14,31,22,13,0.00,40.00,8,2,13,0.00
2013-10-23,69,58,48,18,16,14,27,20,13,0.00,40.00,9,4,14,0.00
2013-10-24,69,57,46,23,15,12,26,19,11,0.00,40.00,11,4,22,0.00
2013-10-25,68,56,46,16,12,9,30,18,10,0.00,40.00,8,3,15,0.00
2013-10-26,66,56,47,14,11,-100,23,17,13,0.00,40.00,7,2,13,0.00
2013-10-27,62,52,35,30,19,14,83,29,17,0.00,40.00,28,-3,51,0.00
2013-10-28,36,32,29,32,27,-100,98,86,64,0.00,40.00,21,8,37,0.00
2013-10-29,37,35,33,30,29,26,90,77,68,0.00,40.00,20,11,41,0.00
2013-10-31,55,47,33,32,30,28,84,54,38,0.00,40.00,8,2,13,0.00
2013-11-1,58,46,36,32,29,26,70,51,31,0.00,40.00,5,-27,9,0.00
2013-11-2,58,53,46,29,24,16,49,33,19,0.00,40.00,19,12,37,0.00
2013-11-3,45,36,31,29,20,11,74,53,37,0.00,40.00,13,6,21,0.00
2013-11-4,41,34,28,16,14,11,57,43,33,0.00,40.00,11,7,19,0.00
2013-11-5,52,40,28,20,13,11,53,35,20,0.00,40.00,7,2,10,0.00
2013-11-6,60,47,38,30,22,15,52,38,22,0.00,40.00,4,1,10,0.00
2013-11-7,60,53,46,32,19,11,53,28,15,0.00,40.00,17,8,33,0.00
2013-11-8,60,53,46,29,22,12,48,31,21,0.00,40.00,21,10,34,0.00
2013-11-9,62,53,43,27,21,-100,46,31,21,0.00,40.00,8,3,11,0.00
2013-11-10,64,54,44,23,16,6,39,23,15,0.00,40.00,5,2,8,0.00
2013-11-11,63,56,48,20,16,2,24,21,13,0.00,40.00,5,2,7,0.00
2013-11-12,62,55,48,27,19,8,34,24,13,0.00,40.00,12,3,19,0.00
2013-11-13,59,52,44,30,22,17,50,32,20,0.00,40.00,11,4,16,0.00
2013-11-14,59,52,42,31,24,18,60,35,20,0.00,40.00,20,13,33,0.00
2013-11-15,44,37,32,31,28,25,90,69,58,0.00,40.00,16,4,21,0.00
2013-11-16,48,43,40,31,24,-100,66,49,32,0.00,40.00,25,16,41,0.00
2013-11-17,57,47,35,29,26,22,75,46,26,0.00,40.00,13,4,22,0.00
2013-11-18,56,48,42,31,28,23,57,47,33,0.00,40.00,15,9,24,0.00
2013-11-19,47,44,41,38,34,29,78,69,55,0.00,40.00,17,9,28,0.00
2013-11-20,45,41,34,36,35,31,98,80,67,0.00,40.00,15,7,23,0.00
2013-11-21,32,27,23,32,23,11,100,85,53,0.00,40.00,7,0,13,0.00
2013-11-22,34,29,19,13,8,1,62,41,30,0.00,40.00,21,8,32,0.00
2013-11-23,39,33,28,12,6,-100,45,33,24,0.00,40.00,15,7,22,0.00
2013-11-24,46,34,28,15,12,9,51,39,23,0.00,40.00,4,1,7,0.00
2013-11-25,50,40,31,20,17,13,53,41,29,0.00,40.00,8,2,10,0.00
2013-11-26,50,41,34,25,20,17,55,44,34,0.00,40.00,3,1,5,0.00
2013-11-27,48,41,36,27,24,21,62,52,41,0.00,40.00,6,1,8,0.00
2013-11-28,45,39,34,29,27,25,74,63,48,0.00,40.00,7,2,11,0.00
2013-11-29,49,39,32,30,27,25,82,65,43,0.00,40.00,9,2,11,0.00
2013-11-30,51,41,35,28,21,-100,72,49,28,0.00,40.00,7,2,10,0.00
2013-12-1,56,49,36,25,23,21,63,37,29,0.00,40.00,5,2,9,0.00
2013-12-2,54,49,43,33,20,10,68,33,17,0.00,40.00,31,18,55,0.00
2013-12-3,43,29,14,35,24,10,95,82,65,0.00,40.00,28,11,42,0.00
2013-12-4,24,15,11,14,11,7,92,84,61,0.00,40.00,8,2,11,0.00
2013-12-5,22,15,12,14,11,10,93,84,68,0.00,40.00,6,1,8,0.00
2013-12-6,32,26,20,21,6,-7,97,48,23,0.00,40.00,17,6,28,0.00
2013-12-7,24,19,12,24,11,-100,98,74,52,0.00,40.00,24,13,40,0.00
2013-12-8,19,11,7,11,7,4,91,82,66,0.00,40.00,4,1,7,0.00
2013-12-9,25,14,5,9,6,1,88,70,37,0.00,40.00,3,1,5,0.00
2013-12-10,40,26,14,19,12,4,70,58,36,0.00,40.00,3,1,4,0.00
2013-12-11,34,24,19,17,13,11,75,62,45,0.00,40.00,3,1,5,0.00
2013-12-12,40,27,19,20,15,12,76,61,42,0.00,40.00,6,1,9,0.00
2013-12-13,43,35,28,19,15,7,68,46,26,0.00,40.00,10,3,15,0.00
2013-12-14,41,32,26,22,17,-100,70,57,45,0.00,40.00,3,1,5,0.00
2013-12-15,47,35,27,25,20,17,70,55,37,0.00,40.00,3,0,5,0.00
2013-12-16,48,38,33,26,20,15,56,49,33,0.00,40.00,2,0,3,0.00
2013-12-17,45,44,42,27,26,24,52,49,47,0.00,40.00,2,1,4,0.00
2013-12-18,55,46,40,27,24,21,52,42,31,0.00,40.00,14,8,26,0.00
2013-12-19,42,28,20,28,22,10,96,77,39,0.00,40.00,21,10,31,0.00
2013-12-20,36,23,16,24,13,4,81,66,30,0.00,40.00,6,2,8,0.00
2013-12-21,45,39,34,31,28,26,75,65,50,0.00,40.00,8,2,11,0.00
2013-12-22,48,39,32,32,28,24,79,65,49,0.00,40.00,8,2,12,0.00
2013-12-23,52,41,35,31,26,21,74,57,38,0.00,40.00,3,1,5,0.00
2013-12-24,49,40,33,32,30,28,88,70,45,0.00,40.00,10,4,13,0.00
2013-12-25,44,35,30,32,29,22,91,78,61,0.00,40.00,3,1,6,0.00
2013-12-28,44,37,31,22,13,-100,67,42,24,0.00,40.00,14,7,22,0.00
2013-12-29,41,32,26,24,20,14,78,62,44,0.00,40.00,4,2,7,0.00
2013-12-30,56,41,31,24,17,9,56,39,17,0.00,40.00,11,2,17,0.00
2013-12-31,53,46,40,22,12,9,31,25,20,0.00,40.00,7,2,10,0.00
2014-1-1,51,41,36,20,16,9,51,37,26,0.00,40.00,10,2,13,0.00
2014-1-2,51,41,34,24,21,18,55,45,33,0.00,40.00,3,1,5,0.00